User: anonymous   Login
Location: Caribou
(46.8667°N, 68.0167°W)
Time: 07:22:25
(UTC-05:00)
Language:

SL-08 RB Rocket - Orbit

View from above orbital plane
View from above orbital plane
View from above satellite
View from above satellite

Ground track
Ground track

The orbit data is extracted from the following two-line orbital elements,

1 26387U 00033D   17056.25068302  .00000135  00000-0  31718-4 0  9990
2 26387  97.9848 123.3282 0025832 335.5466  64.9335 14.68242107891458
Epoch (UTC): 25 February 2017 06:00:59
Eccentricity: 0.0025832
inclination: 97.9848°
perigee height: 648 km
apogee height: 685 km
right ascension of ascending node: 123.3282°
argument of perigee: 335.5466°
revolutions per day: 14.68242107
mean anomaly at epoch: 64.9335°
orbit number at epoch: 89145

The dashed part of the orbit path shows where the satellite is in the earth's shadow,  

DLR